| time (UTC) | temp F | wind direction | speed MPH | gust MPH | rain 1hr in | rain 24hr in | rain mn in | humidity % | barometer mb |
| 20260504182903 | 71 | 232 | 4.0 | 15.0 | 0.00 | 0.00 | 0.00 | 32 | 1010.0 |
| 20260504182359 | 71 | 198 | 5.0 | 11.0 | 0.00 | 0.00 | 0.00 | 32 | 1010.0 |
| 20260504181856 | 70 | 253 | 1.0 | 11.0 | 0.00 | 0.00 | 0.00 | 34 | 1010.2 |
| 20260504181354 | 71 | 150 | 1.0 | 11.0 | 0.00 | 0.00 | 0.00 | 33 | 1010.2 |
| 20260504180852 | 71 | 53 | 3.0 | 11.0 | 0.00 | 0.00 | 0.00 | 33 | 1010.6 |
| 20260504180350 | 71 | 224 | 4.0 | 9.0 | 0.00 | 0.00 | 0.00 | 33 | 1010.7 |
| 20260504175848 | 70 | 294 | 4.0 | 11.0 | 0.00 | 0.00 | 0.00 | 33 | 1010.7 |
| 20260504175345 | 69 | 259 | 5.0 | 11.0 | 0.00 | 0.00 | 0.00 | 34 | 1010.8 |
| 20260504174843 | 69 | 258 | 4.0 | 15.0 | 0.00 | 0.00 | 0.00 | 34 | 1010.7 |
| 20260504174340 | 69 | 260 | 8.0 | 16.0 | 0.00 | 0.00 | 0.00 | 34 | 1010.9 |
| 20260504173837 | 70 | 206 | 6.0 | 13.0 | 0.00 | 0.00 | 0.00 | 34 | 1010.6 |
| 20260504173334 | 70 | 184 | 6.0 | 11.0 | 0.00 | 0.00 | 0.00 | 34 | 1010.5 |
| 20260504172831 | 69 | 239 | 6.0 | 10.0 | 0.00 | 0.00 | 0.00 | 35 | 1010.7 |
| 20260504172328 | 70 | 126 | 1.0 | 10.0 | 0.00 | 0.00 | 0.00 | 34 | 1010.6 |
| 20260504171823 | 69 | 237 | 3.0 | 8.0 | 0.00 | 0.00 | 0.00 | 34 | 1010.7 |
| 20260504171321 | 69 | 221 | 3.0 | 15.0 | 0.00 | 0.00 | 0.00 | 34 | 1010.8 |
| 20260504170818 | 68 | 256 | 3.0 | 14.0 | 0.00 | 0.00 | 0.00 | 35 | 1010.8 |
| 20260504170315 | 68 | 245 | 5.0 | 15.0 | 0.00 | 0.00 | 0.00 | 34 | 1010.8 |
| 20260504160233 | 66 | 221 | 3.0 | 9.0 | 0.00 | 0.00 | 0.00 | 35 | 1011.6 |
| 20260504150658 | 65 | 274 | 2.0 | 16.0 | 0.00 | 0.00 | 0.00 | 37 | 1012.0 |
| 20260504150155 | 65 | 228 | 4.0 | 9.0 | 0.00 | 0.00 | 0.00 | 37 | 1012.5 |
| 20260504141124 | 61 | 285 | 9.0 | 17.0 | 0.00 | 0.00 | 0.00 | 45 | 1012.6 |
| 20260504140621 | 61 | 288 | 8.0 | 18.0 | 0.00 | 0.00 | 0.00 | 44 | 1012.4 |
| 20260504140117 | 61 | 283 | 9.0 | 13.0 | 0.00 | 0.00 | 0.00 | 44 | 1012.5 |
| 20260504130545 | 58 | 285 | 9.0 | 11.0 | 0.00 | 0.00 | 0.00 | 51 | 1013.2 |
| 20260504110432 | 53 | 246 | 12.0 | 17.0 | 0.00 | 0.00 | 0.00 | 55 | 1013.5 |
| 20260504100349 | 52 | 241 | 2.0 | 5.0 | 0.00 | 0.00 | 0.00 | 50 | 1013.3 |
| 20260504081742 | 53 | 260 | 6.0 | 13.0 | 0.00 | 0.00 | 0.00 | 45 | 1012.7 |
| 20260504081239 | 53 | 237 | 8.0 | 13.0 | 0.00 | 0.00 | 0.00 | 45 | 1012.8 |
| 20260504080735 | 53 | 257 | 7.0 | 7.0 | 0.00 | 0.00 | 0.00 | 45 | 1012.9 |
| 20260504080232 | 53 | 236 | 13.0 | 15.0 | 0.00 | 0.00 | 0.00 | 44 | 1012.9 |
| 20260504070159 | 54 | 240 | 7.0 | 11.0 | 0.00 | 0.00 | 0.00 | 44 | 1012.5 |
| 20260504060120 | 55 | 312 | 4.0 | 8.0 | 0.00 | 0.00 | 0.00 | 42 | 1012.4 |
| 20260504050548 | 55 | 237 | 6.0 | 11.0 | 0.00 | 0.00 | 0.00 | 41 | 1012.3 |
| 20260504045542 | 55 | 244 | 3.0 | 6.0 | 0.00 | 0.00 | 0.00 | 41 | 1012.1 |
| 20260504045037 | 56 | 231 | 4.0 | 10.0 | 0.00 | 0.00 | 0.00 | 41 | 1012.0 |
| 20260504044535 | 56 | 253 | 3.0 | 9.0 | 0.00 | 0.00 | 0.00 | 41 | 1012.2 |
| 20260504044031 | 56 | 240 | 6.0 | 8.0 | 0.00 | 0.00 | 0.00 | 41 | 1012.2 |
| 20260504043528 | 56 | 248 | 4.0 | 8.0 | 0.00 | 0.00 | 0.00 | 40 | 1012.1 |
| 20260504043026 | 56 | 267 | 8.0 | 10.0 | 0.00 | 0.00 | 0.00 | 40 | 1012.0 |
| 20260504042523 | 56 | 228 | 4.0 | 7.0 | 0.00 | 0.00 | 0.00 | 40 | 1011.9 |
| 20260504042020 | 56 | 237 | 8.0 | 11.0 | 0.00 | 0.00 | 0.00 | 40 | 1012.0 |
| 20260504041515 | 56 | 254 | 7.0 | 9.0 | 0.00 | 0.00 | 0.00 | 39 | 1012.0 |
| 20260504041012 | 56 | 249 | 2.0 | 5.0 | 0.00 | 0.00 | 0.00 | 39 | 1012.0 |
| 20260504040509 | 56 | 269 | 2.0 | 8.0 | 0.00 | 0.00 | 0.00 | 39 | 1011.8 |
| 20260504040006 | 57 | 242 | 2.0 | 10.0 | 0.00 | 0.00 | 0.00 | 39 | 1011.9 |
| 20260504035503 | 56 | 245 | 7.0 | 9.0 | 0.00 | 0.00 | 0.00 | 39 | 1011.9 |
| 20260504034959 | 56 | 257 | 7.0 | 9.0 | 0.00 | 0.00 | 0.00 | 39 | 1011.6 |
| 20260504034457 | 57 | 205 | 1.0 | 7.0 | 0.00 | 0.00 | 0.00 | 38 | 1012.0 |
| 20260504033954 | 57 | 237 | 7.0 | 10.0 | 0.00 | 0.00 | 0.00 | 38 | 1012.0 |
| 20260504033451 | 57 | 238 | 4.0 | 6.0 | 0.00 | 0.00 | 0.00 | 38 | 1011.9 |
| 20260504032949 | 57 | 252 | 5.0 | 6.0 | 0.00 | 0.00 | 0.00 | 38 | 1011.8 |
| 20260504032445 | 57 | 255 | 2.0 | 7.0 | 0.00 | 0.00 | 0.00 | 38 | 1011.9 |
| 20260504031942 | 57 | 252 | 2.0 | 7.0 | 0.00 | 0.00 | 0.00 | 38 | 1011.7 |
| 20260504031439 | 57 | 74 | 0.0 | 6.0 | 0.00 | 0.00 | 0.00 | 37 | 1011.8 |
| 20260504030936 | 57 | 257 | 5.0 | 6.0 | 0.00 | 0.00 | 0.00 | 38 | 1011.9 |
| 20260504030433 | 57 | 298 | 4.0 | 6.0 | 0.00 | 0.00 | 0.00 | 37 | 1011.8 |
| 20260504025928 | 57 | 284 | 2.0 | 8.0 | 0.00 | 0.00 | 0.00 | 37 | 1011.9 |
| 20260504025425 | 57 | 272 | 3.0 | 4.0 | 0.00 | 0.00 | 0.00 | 37 | 1011.9 |
| 20260504024922 | 57 | 253 | 3.0 | 5.0 | 0.00 | 0.00 | 0.00 | 38 | 1011.8 |
| 20260504024420 | 58 | 252 | 3.0 | 5.0 | 0.00 | 0.00 | 0.00 | 36 | 1011.7 |
| 20260504023917 | 58 | 225 | 4.0 | 8.0 | 0.00 | 0.00 | 0.00 | 35 | 1012.0 |
| 20260504023413 | 58 | 251 | 2.0 | 4.0 | 0.00 | 0.00 | 0.00 | 34 | 1011.8 |
| 20260504022909 | 58 | 249 | 5.0 | 6.0 | 0.00 | 0.00 | 0.00 | 34 | 1012.1 |
| 20260504022406 | 58 | 249 | 7.0 | 9.0 | 0.00 | 0.00 | 0.00 | 34 | 1011.9 |
| 20260504021902 | 58 | 241 | 4.0 | 7.0 | 0.00 | 0.00 | 0.00 | 34 | 1011.8 |
| 20260504021359 | 59 | 261 | 6.0 | 11.0 | 0.00 | 0.00 | 0.00 | 33 | 1012.0 |
| 20260504020856 | 59 | 242 | 6.0 | 8.0 | 0.00 | 0.00 | 0.00 | 33 | 1012.0 |
| 20260504020353 | 59 | 273 | 5.0 | 11.0 | 0.00 | 0.00 | 0.00 | 32 | 1011.9 |
| 20260504015849 | 59 | 245 | 4.0 | 5.0 | 0.00 | 0.00 | 0.00 | 33 | 1011.9 |
| 20260504015345 | 59 | 267 | 4.0 | 5.0 | 0.00 | 0.00 | 0.00 | 32 | 1011.8 |
| 20260504014841 | 59 | 273 | 3.0 | 7.0 | 0.00 | 0.00 | 0.00 | 32 | 1011.8 |
| 20260504014337 | 59 | 259 | 4.0 | 6.0 | 0.00 | 0.00 | 0.00 | 32 | 1012.1 |
| 20260504013836 | 59 | 250 | 6.0 | 6.0 | 0.00 | 0.00 | 0.00 | 31 | 1011.7 |
| 20260504013333 | 59 | 243 | 3.0 | 6.0 | 0.00 | 0.00 | 0.00 | 31 | 1011.6 |
| 20260504012830 | 59 | 246 | 5.0 | 8.0 | 0.00 | 0.00 | 0.00 | 31 | 1011.5 |
| 20260504012327 | 59 | 257 | 6.0 | 8.0 | 0.00 | 0.00 | 0.00 | 31 | 1011.8 |
| 20260504011825 | 59 | 247 | 4.0 | 5.0 | 0.00 | 0.00 | 0.00 | 31 | 1011.6 |
| 20260504011321 | 59 | 254 | 3.0 | 4.0 | 0.00 | 0.00 | 0.00 | 31 | 1011.4 |
| 20260504010817 | 59 | 244 | 4.0 | 5.0 | 0.00 | 0.00 | 0.00 | 32 | 1011.4 |
| 20260504010313 | 60 | 238 | 4.0 | 5.0 | 0.00 | 0.00 | 0.00 | 31 | 1011.3 |
| 20260504005809 | 60 | 257 | 6.0 | 7.0 | 0.00 | 0.00 | 0.00 | 30 | 1011.4 |
| 20260504005306 | 60 | 240 | 4.0 | 8.0 | 0.00 | 0.00 | 0.00 | 30 | 1011.4 |
| 20260504004804 | 60 | 250 | 3.0 | 8.0 | 0.00 | 0.00 | 0.00 | 30 | 1011.3 |
| 20260504004301 | 60 | 266 | 5.0 | 13.0 | 0.00 | 0.00 | 0.00 | 31 | 1011.4 |
| 20260504003758 | 60 | 248 | 4.0 | 6.0 | 0.00 | 0.00 | 0.00 | 30 | 1011.0 |
| 20260504003255 | 59 | 242 | 3.0 | 4.0 | 0.00 | 0.00 | 0.00 | 30 | 1010.8 |
| 20260504002751 | 59 | 303 | 3.0 | 4.0 | 0.00 | 0.00 | 0.00 | 30 | 1011.0 |
| 20260504002248 | 60 | 223 | 0.0 | 4.0 | 0.00 | 0.00 | 0.00 | 30 | 1011.0 |
| 20260504001746 | 60 | 246 | 2.0 | 5.0 | 0.00 | 0.00 | 0.00 | 30 | 1010.7 |
| 20260504001243 | 60 | 250 | 3.0 | 5.0 | 0.00 | 0.00 | 0.00 | 30 | 1010.8 |
| 20260504000739 | 60 | 282 | 4.0 | 4.0 | 0.00 | 0.00 | 0.00 | 29 | 1010.8 |
| 20260504000236 | 60 | 313 | 2.0 | 4.0 | 0.00 | 0.00 | 0.00 | 29 | 1010.5 |
| 20260503235735 | 60 | 265 | 3.0 | 4.0 | 0.00 | 0.00 | 0.00 | 30 | 1010.6 |
| 20260503235231 | 60 | 295 | 2.0 | 4.0 | 0.00 | 0.00 | 0.00 | 29 | 1010.5 |
| 20260503234729 | 60 | 304 | 3.0 | 5.0 | 0.00 | 0.00 | 0.00 | 29 | 1010.5 |
| 20260503234227 | 60 | 254 | 0.0 | 4.0 | 0.00 | 0.00 | 0.00 | 28 | 1010.5 |
| 20260503233724 | 60 | 306 | 6.0 | 6.0 | 0.00 | 0.00 | 0.00 | 28 | 1010.4 |
| 20260503233219 | 60 | 226 | 0.0 | 3.0 | 0.00 | 0.00 | 0.00 | 28 | 1010.3 |
| 20260503232717 | 60 | 14 | 6.0 | 11.0 | 0.00 | 0.00 | 0.00 | 27 | 1010.3 |
| 20260503232214 | 61 | 342 | 3.0 | 8.0 | 0.00 | 0.00 | 0.00 | 27 | 1010.2 |
| 20260503231712 | 61 | 270 | 6.0 | 13.0 | 0.00 | 0.00 | 0.00 | 27 | 1010.4 |
| 20260503231208 | 61 | 320 | 5.0 | 8.0 | 0.00 | 0.00 | 0.00 | 27 | 1010.3 |
| 20260503230705 | 61 | 309 | 11.0 | 17.0 | 0.00 | 0.00 | 0.00 | 27 | 1010.4 |
| 20260503230202 | 61 | 329 | 4.0 | 9.0 | 0.00 | 0.00 | 0.00 | 26 | 1010.1 |
| 20260503225659 | 62 | 216 | 5.0 | 12.0 | 0.00 | 0.00 | 0.00 | 26 | 1010.0 |
| 20260503225159 | 61 | 231 | 6.0 | 12.0 | 0.00 | 0.00 | 0.00 | 27 | 1010.1 |
| 20260503224657 | 61 | 77 | 4.0 | 6.0 | 0.00 | 0.00 | 0.00 | 26 | 1010.0 |
| 20260503224155 | 61 | 327 | 7.0 | 9.0 | 0.00 | 0.00 | 0.00 | 26 | 1010.1 |
| 20260503223652 | 60 | 14 | 3.0 | 17.0 | 0.00 | 0.00 | 0.00 | 26 | 1010.0 |
| 20260503223149 | 62 | 297 | 8.0 | 12.0 | 0.00 | 0.00 | 0.00 | 26 | 1010.4 |
| 20260503222646 | 61 | 290 | 12.0 | 15.0 | 0.00 | 0.00 | 0.00 | 26 | 1010.2 |
| 20260503222144 | 61 | 250 | 4.0 | 5.0 | 0.00 | 0.00 | 0.00 | 25 | 1009.9 |
| 20260503221642 | 60 | 351 | 1.0 | 11.0 | 0.00 | 0.00 | 0.00 | 26 | 1010.0 |
| 20260503221139 | 60 | 352 | 4.0 | 14.0 | 0.00 | 0.00 | 0.00 | 26 | 1010.1 |
| 20260503220635 | 60 | 271 | 6.0 | 27.0 | 0.00 | 0.00 | 0.00 | 26 | 1010.0 |
| 20260503220132 | 60 | 294 | 7.0 | 12.0 | 0.00 | 0.00 | 0.00 | 26 | 1010.3 |
| 20260503215630 | 60 | 255 | 6.0 | 12.0 | 0.00 | 0.00 | 0.00 | 26 | 1010.1 |
| 20260503215126 | 60 | 35 | 13.0 | 15.0 | 0.00 | 0.00 | 0.00 | 26 | 1010.2 |
| 20260503214625 | 60 | 339 | 6.0 | 18.0 | 0.00 | 0.00 | 0.00 | 26 | 1010.1 |
| 20260503214121 | 60 | 12 | 4.0 | 11.0 | 0.00 | 0.00 | 0.00 | 27 | 1010.1 |
| 20260503213620 | 60 | 8 | 10.0 | 18.0 | 0.00 | 0.00 | 0.00 | 26 | 1010.2 |
| 20260503213116 | 60 | 46 | 6.0 | 13.0 | 0.00 | 0.00 | 0.00 | 26 | 1010.2 |
| 20260503212614 | 60 | 282 | 5.0 | 13.0 | 0.00 | 0.00 | 0.00 | 27 | 1010.1 |
| 20260503212111 | 60 | 285 | 6.0 | 13.0 | 0.00 | 0.00 | 0.00 | 27 | 1009.9 |
| 20260503211608 | 60 | 359 | 2.0 | 10.0 | 0.00 | 0.00 | 0.00 | 27 | 1010.0 |
| 20260503211103 | 60 | 280 | 14.0 | 15.0 | 0.00 | 0.00 | 0.00 | 27 | 1010.1 |
| 20260503210600 | 60 | 47 | 4.0 | 6.0 | 0.00 | 0.00 | 0.00 | 27 | 1010.0 |
| 20260503210056 | 59 | 340 | 1.0 | 15.0 | 0.00 | 0.00 | 0.00 | 28 | 1009.9 |
| 20260503205553 | 59 | 299 | 8.0 | 11.0 | 0.00 | 0.00 | 0.00 | 27 | 1009.6 |
| 20260503205049 | 59 | 310 | 5.0 | 16.0 | 0.00 | 0.00 | 0.00 | 28 | 1009.8 |
| 20260503204546 | 60 | 242 | 2.0 | 13.0 | 0.00 | 0.00 | 0.00 | 27 | 1009.8 |
| 20260503204043 | 61 | 298 | 1.0 | 6.0 | 0.00 | 0.00 | 0.00 | 27 | 1009.7 |
| 20260503203540 | 58 | 299 | 16.0 | 19.0 | 0.00 | 0.00 | 0.00 | 28 | 1010.1 |
| 20260503203037 | 59 | 281 | 11.0 | 22.0 | 0.00 | 0.00 | 0.00 | 28 | 1010.0 |
| 20260503202535 | 60 | 281 | 3.0 | 13.0 | 0.00 | 0.00 | 0.00 | 27 | 1010.0 |
| 20260503202033 | 59 | 20 | 2.0 | 11.0 | 0.00 | 0.00 | 0.00 | 28 | 1009.7 |
| 20260503201531 | 58 | 292 | 9.0 | 12.0 | 0.00 | 0.00 | 0.00 | 29 | 1010.0 |
| 20260503201028 | 59 | 259 | 6.0 | 9.0 | 0.00 | 0.00 | 0.00 | 28 | 1009.9 |
| 20260503200524 | 58 | 313 | 6.0 | 14.0 | 0.00 | 0.00 | 0.00 | 28 | 1010.1 |
| 20260503200021 | 59 | 255 | 17.0 | 21.0 | 0.00 | 0.00 | 0.00 | 28 | 1010.0 |
| 20260503195518 | 60 | 103 | 6.0 | 7.0 | 0.00 | 0.00 | 0.00 | 28 | 1010.2 |
| 20260503195015 | 58 | 322 | 10.0 | 14.0 | 0.00 | 0.00 | 0.00 | 29 | 1010.1 |
| 20260503194512 | 58 | 243 | 6.0 | 14.0 | 0.00 | 0.00 | 0.00 | 29 | 1009.9 |
| 20260503194012 | 58 | 22 | 8.0 | 17.0 | 0.00 | 0.00 | 0.00 | 29 | 1010.3 |
| 20260503193508 | 57 | 26 | 10.0 | 24.0 | 0.00 | 0.00 | 0.00 | 29 | 1010.3 |
| 20260503193004 | 57 | 33 | 6.0 | 24.0 | 0.00 | 0.00 | 0.00 | 30 | 1009.8 |
| 20260503192500 | 58 | 243 | 12.0 | 15.0 | 0.00 | 0.00 | 0.00 | 30 | 1010.6 |
| 20260503191955 | 56 | 33 | 9.0 | 21.0 | 0.00 | 0.00 | 0.00 | 31 | 1010.2 |
| 20260503191453 | 58 | 255 | 7.0 | 7.0 | 0.00 | 0.00 | 0.00 | 30 | 1010.4 |
| 20260503190949 | 56 | 342 | 8.0 | 18.0 | 0.00 | 0.00 | 0.00 | 31 | 1010.4 |
| 20260503190447 | 58 | 15 | 4.0 | 10.0 | 0.00 | 0.00 | 0.00 | 31 | 1010.5 |
| 20260503185944 | 58 | 290 | 4.0 | 9.0 | 0.00 | 0.00 | 0.00 | 31 | 1010.5 |
| 20260503185440 | 57 | 258 | 6.0 | 9.0 | 0.00 | 0.00 | 0.00 | 32 | 1010.5 |
| 20260503184940 | 57 | 252 | 5.0 | 10.0 | 0.00 | 0.00 | 0.00 | 33 | 1010.5 |
| 20260503184436 | 55 | 294 | 12.0 | 15.0 | 0.00 | 0.00 | 0.00 | 34 | 1010.9 |
| 20260503183933 | 55 | 243 | 8.0 | 13.0 | 0.00 | 0.00 | 0.00 | 34 | 1010.8 |
| 20260503183429 | 54 | 26 | 2.0 | 16.0 | 0.00 | 0.00 | 0.00 | 34 | 1010.8 |